TimeEDT,TemperatureF,Dew PointF,Humidity,Sea Level PressureIn,VisibilityMPH,Wind Direction,Wind SpeedMPH,Gust SpeedMPH,PrecipitationIn,Events,Conditions,WindDirDegrees,DateUTC
12:53 AM,79.0,77.0,94,29.88,10.0,West,5.8,-,N/A,,Mostly Cloudy,260,2013-09-27 04:53:00
1:53 AM,79.0,75.9,90,29.87,10.0,WNW,6.9,-,N/A,,Clear,300,2013-09-27 05:53:00
2:53 AM,77.0,75.9,96,29.86,10.0,WNW,4.6,-,N/A,,Clear,290,2013-09-27 06:53:00
3:53 AM,75.9,75.0,97,29.85,10.0,WNW,3.5,-,N/A,,Clear,300,2013-09-27 07:53:00
4:53 AM,75.9,75.0,97,29.86,10.0,NW,4.6,-,N/A,,Clear,310,2013-09-27 08:53:00
5:28 AM,75.2,75.2,100,29.85,9.0,NW,4.6,-,N/A,,Partly Cloudy,320,2013-09-27 09:28:00
5:53 AM,75.9,75.0,97,29.86,7.0,NW,5.8,-,N/A,,Scattered Clouds,310,2013-09-27 09:53:00
6:53 AM,75.9,75.0,97,29.87,9.0,NNW,4.6,-,N/A,,Partly Cloudy,330,2013-09-27 10:53:00
7:53 AM,75.9,73.9,94,29.89,10.0,NNW,5.8,-,N/A,,Clear,340,2013-09-27 11:53:00
8:53 AM,78.1,73.9,87,29.91,10.0,North,8.1,-,N/A,,Mostly Cloudy,350,2013-09-27 12:53:00
9:53 AM,81.0,73.9,79,29.91,10.0,NNW,6.9,-,N/A,,Clear,340,2013-09-27 13:53:00
10:53 AM,84.0,73.0,69,29.92,10.0,North,5.8,-,N/A,,Clear,350,2013-09-27 14:53:00
11:53 AM,86.0,71.1,61,29.92,10.0,Variable,5.8,-,N/A,,Clear,0,2013-09-27 15:53:00
12:53 PM,87.1,68.0,53,29.90,10.0,NW,8.1,-,N/A,,Clear,310,2013-09-27 16:53:00
1:53 PM,89.1,64.9,45,29.88,10.0,NW,10.4,-,N/A,,Clear,320,2013-09-27 17:53:00
2:53 PM,89.1,68.0,50,29.87,10.0,North,12.7,19.6,N/A,,Partly Cloudy,350,2013-09-27 18:53:00
3:53 PM,89.1,68.0,50,29.86,10.0,NW,11.5,-,N/A,,Scattered Clouds,320,2013-09-27 19:53:00
4:53 PM,87.1,71.1,59,29.87,10.0,ENE,11.5,-,N/A,,Scattered Clouds,70,2013-09-27 20:53:00
5:53 PM,84.9,69.1,59,29.88,10.0,NNE,8.1,-,N/A,,Clear,30,2013-09-27 21:53:00
6:53 PM,82.9,69.1,63,29.89,10.0,NE,9.2,-,N/A,,Clear,50,2013-09-27 22:53:00
7:53 PM,81.0,71.1,72,29.91,10.0,NE,8.1,-,N/A,,Clear,50,2013-09-27 23:53:00
8:53 PM,81.0,73.0,77,29.92,10.0,NE,4.6,-,N/A,,Partly Cloudy,50,2013-09-28 00:53:00
9:53 PM,80.1,72.0,76,29.93,10.0,NNE,4.6,-,N/A,,Clear,30,2013-09-28 01:53:00
10:53 PM,80.1,72.0,76,29.94,10.0,Calm,Calm,-,N/A,,Scattered Clouds,0,2013-09-28 02:53:00
11:53 PM,79.0,72.0,79,29.94,10.0,Calm,Calm,-,N/A,,Clear,0,2013-09-28 03:53:00